Voltar ao catálogo

STARLINK-5327

AtivoComunicaçõesVLEO
NORAD 55291·PAYLOAD·🇺🇸 United States

Lançado Jan 19, 2023 de Vandenberg Space Force Base

Loading…

Próximas Passagens (próximas 24 horas)

TLE

AtualizadoSource: CelesTrak SupGP

Época: Sep 14, 2026, 21:42 UTC

1 55291C 23010Y   26257.90465278  .00062227  00000+0  52153-2 0  2574
2 55291  69.9996 267.5098 0003113 268.9985 261.0844 14.98296172    19

Acompanhe STARLINK-5327 em tempo real com AllMySat

Download on the App Store